TimeEST,TemperatureF,Dew PointF,Humidity,Sea Level PressureIn,VisibilityMPH,Wind Direction,Wind SpeedMPH,Gust SpeedMPH,PrecipitationIn,Events,Conditions,WindDirDegrees,DateUTC
12:53 AM,19.9,7.0,57,30.18,10.0,WNW,9.2,-,N/A,,Overcast,300,2013-01-21 05:53:00
1:53 AM,19.9,8.1,60,30.15,10.0,WNW,8.1,-,N/A,,Overcast,290,2013-01-21 06:53:00
2:53 AM,19.0,8.1,62,30.15,10.0,West,13.8,-,0.00,,Overcast,270,2013-01-21 07:53:00
3:53 AM,19.0,8.1,62,30.13,10.0,West,10.4,20.7,N/A,,Overcast,280,2013-01-21 08:53:00
4:53 AM,18.0,8.1,65,30.11,10.0,West,16.1,24.2,N/A,,Overcast,280,2013-01-21 09:53:00
5:48 AM,17.6,10.4,73,30.07,2.5,WNW,11.5,-,0.00,Snow,Light Snow,300,2013-01-21 10:48:00
5:53 AM,17.1,10.0,74,30.10,1.5,WNW,11.5,19.6,0.00,Snow,Light Snow,290,2013-01-21 10:53:00
6:00 AM,17.6,12.2,79,30.06,1.0,West,12.7,-,0.00,Snow,Light Snow,280,2013-01-21 11:00:00
6:20 AM,17.6,10.4,73,30.06,1.5,West,18.4,24.2,0.00,Snow,Light Snow,270,2013-01-21 11:20:00
6:33 AM,17.6,10.4,73,30.06,2.0,West,18.4,23.0,0.00,Snow,Light Snow,270,2013-01-21 11:33:00
6:53 AM,17.1,10.0,74,30.10,2.0,West,19.6,24.2,0.00,Snow,Light Snow,260,2013-01-21 11:53:00
7:03 AM,17.6,8.6,68,30.06,6.0,West,16.1,25.3,0.00,Snow,Light Snow,280,2013-01-21 12:03:00
7:10 AM,15.8,10.4,79,30.06,1.8,West,16.1,24.2,0.00,Snow,Light Snow,280,2013-01-21 12:10:00
7:18 AM,15.8,10.4,79,30.06,1.0,West,17.3,24.2,0.00,Snow,Light Snow,280,2013-01-21 12:18:00
7:24 AM,15.8,8.6,73,30.06,2.0,West,18.4,25.3,0.00,Snow,Light Snow,270,2013-01-21 12:24:00
7:33 AM,15.8,8.6,73,30.07,3.0,West,21.9,31.1,0.00,Snow,Light Snow,280,2013-01-21 12:33:00
7:42 AM,15.8,6.8,68,30.06,2.5,West,16.1,28.8,0.00,Snow,Light Snow,280,2013-01-21 12:42:00
7:51 AM,15.8,8.6,73,30.06,1.2,West,19.6,28.8,0.00,Snow,Light Snow,270,2013-01-21 12:51:00
7:53 AM,15.1,9.0,77,30.09,1.0,West,19.6,28.8,0.00,Snow,Light Snow,270,2013-01-21 12:53:00
8:03 AM,15.8,8.6,73,30.06,2.0,West,19.6,26.5,0.00,Snow,Light Snow,270,2013-01-21 13:03:00
8:12 AM,15.8,3.2,58,30.06,5.0,West,20.7,25.3,0.00,Snow,Light Snow,280,2013-01-21 13:12:00
8:27 AM,15.8,6.8,68,30.06,5.0,West,17.3,25.3,0.00,Snow,Light Snow,270,2013-01-21 13:27:00
8:39 AM,15.8,6.8,68,30.06,1.8,West,13.8,29.9,0.00,Snow,Light Snow,280,2013-01-21 13:39:00
8:47 AM,15.8,5.0,62,30.06,3.0,West,20.7,28.8,0.00,Snow,Light Snow,280,2013-01-21 13:47:00
8:50 AM,15.8,5.0,62,30.07,2.5,West,21.9,28.8,0.00,Snow,Light Snow,280,2013-01-21 13:50:00
8:53 AM,14.0,6.1,71,30.11,1.5,West,19.6,28.8,0.00,Snow,Light Snow,280,2013-01-21 13:53:00
9:00 AM,14.0,6.8,73,30.07,1.2,West,20.7,27.6,0.00,Snow,Light Snow,280,2013-01-21 14:00:00
9:11 AM,14.0,6.8,73,30.07,0.5,WNW,16.1,27.6,0.00,Snow,Snow,290,2013-01-21 14:11:00
9:15 AM,14.0,6.8,73,30.07,1.0,West,15.0,26.5,0.00,Snow,Light Snow,280,2013-01-21 14:15:00
9:27 AM,14.0,6.8,73,30.08,2.0,WNW,15.0,24.2,0.00,Snow,Light Snow,290,2013-01-21 14:27:00
9:42 AM,14.0,6.8,73,30.08,1.2,West,13.8,23.0,0.00,Snow,Light Snow,280,2013-01-21 14:42:00
9:49 AM,14.0,8.6,79,30.08,0.5,WNW,13.8,28.8,0.00,Snow,Snow,290,2013-01-21 14:49:00
9:53 AM,14.0,9.0,80,30.12,0.5,West,21.9,29.9,0.00,Snow,Snow,280,2013-01-21 14:53:00
10:06 AM,12.2,8.6,85,30.08,0.2,West,18.4,27.6,0.00,Snow,Heavy Snow,280,2013-01-21 15:06:00
10:20 AM,14.0,6.8,73,30.09,1.0,WNW,12.7,23.0,0.00,Snow,Light Snow,300,2013-01-21 15:20:00
10:23 AM,14.0,5.0,67,30.09,2.5,WNW,13.8,23.0,0.00,Snow,Light Snow,290,2013-01-21 15:23:00
10:26 AM,14.0,3.2,62,30.09,6.0,WNW,19.6,29.9,0.00,Snow,Light Snow,290,2013-01-21 15:26:00
10:44 AM,15.8,3.2,58,30.09,10.0,West,18.4,26.5,0.00,,Overcast,280,2013-01-21 15:44:00
10:53 AM,14.0,1.9,59,30.13,10.0,WNW,16.1,24.2,0.00,,Overcast,290,2013-01-21 15:53:00
11:19 AM,14.0,5.0,67,30.09,2.5,WNW,15.0,27.6,0.00,Snow,Light Snow,290,2013-01-21 16:19:00
11:23 AM,14.0,3.2,62,30.09,3.0,West,21.9,27.6,0.00,Snow,Light Snow,280,2013-01-21 16:23:00
11:30 AM,12.2,3.2,67,30.09,1.8,WNW,16.1,27.6,0.00,Snow,Light Snow,290,2013-01-21 16:30:00
11:36 AM,12.2,6.8,79,30.10,0.8,WNW,15.0,26.5,0.00,Snow,Light Snow,300,2013-01-21 16:36:00
11:43 AM,12.2,6.8,79,30.09,0.2,WNW,13.8,23.0,0.00,Snow,Heavy Snow,300,2013-01-21 16:43:00
11:50 AM,12.2,6.8,79,30.09,0.2,WNW,13.8,23.0,0.00,Snow,Heavy Snow,290,2013-01-21 16:50:00
11:53 AM,12.9,6.1,74,30.13,0.5,WNW,13.8,20.7,0.00,Snow,Snow,290,2013-01-21 16:53:00
11:56 AM,12.2,6.8,79,30.09,1.0,WNW,15.0,23.0,0.00,Snow,Light Snow,290,2013-01-21 16:56:00
12:04 PM,12.2,5.0,73,30.09,1.5,WNW,15.0,23.0,0.00,Snow,Light Snow,300,2013-01-21 17:04:00
12:10 PM,12.2,3.2,67,30.09,3.0,WNW,11.5,24.2,0.00,Snow,Light Snow,300,2013-01-21 17:10:00
12:18 PM,12.2,3.2,67,30.09,1.2,WNW,13.8,21.9,0.00,Snow,Light Snow,290,2013-01-21 17:18:00
12:25 PM,12.2,6.8,79,30.08,0.5,WNW,10.4,19.6,0.00,Snow,Snow,290,2013-01-21 17:25:00
12:45 PM,12.2,6.8,79,30.08,0.2,WNW,15.0,25.3,0.00,Snow,Heavy Snow,290,2013-01-21 17:45:00
12:53 PM,12.0,7.0,80,30.11,0.2,West,12.7,23.0,0.00,Snow,Heavy Snow,280,2013-01-21 17:53:00
1:00 PM,14.0,6.8,73,30.07,1.0,West,17.3,25.3,0.00,Snow,Light Snow,280,2013-01-21 18:00:00
1:03 PM,14.0,3.2,62,30.07,2.5,West,17.3,25.3,0.00,Snow,Light Snow,270,2013-01-21 18:03:00
1:08 PM,14.0,3.2,62,30.07,1.2,WNW,16.1,26.5,0.00,Snow,Light Snow,290,2013-01-21 18:08:00
1:10 PM,12.2,6.8,79,30.07,0.5,WNW,16.1,26.5,0.00,Snow,Snow,290,2013-01-21 18:10:00
1:24 PM,12.2,3.2,67,30.07,0.8,West,19.6,28.8,0.00,Snow,Light Snow,280,2013-01-21 18:24:00
1:26 PM,12.2,3.2,67,30.07,1.8,West,19.6,28.8,0.00,Snow,Light Snow,270,2013-01-21 18:26:00
1:28 PM,12.2,1.4,62,30.07,3.0,WNW,17.3,28.8,0.00,Snow,Light Snow,290,2013-01-21 18:28:00
1:39 PM,12.2,3.2,67,30.07,1.2,WNW,19.6,31.1,0.00,Snow,Light Snow,290,2013-01-21 18:39:00
1:41 PM,12.2,6.8,79,30.07,0.5,WNW,18.4,31.1,0.00,Snow,Snow,290,2013-01-21 18:41:00
1:51 PM,12.2,6.8,79,30.07,0.2,WNW,19.6,27.6,0.00,Snow,Heavy Snow,290,2013-01-21 18:51:00
1:53 PM,12.0,6.1,77,30.11,0.2,West,17.3,27.6,0.00,Snow,Heavy Snow,280,2013-01-21 18:53:00
1:59 PM,12.2,3.2,67,30.08,1.0,West,17.3,25.3,0.00,Snow,Light Snow,280,2013-01-21 18:59:00
2:01 PM,12.2,1.4,62,30.08,1.8,West,19.6,25.3,0.00,Snow,Light Snow,280,2013-01-21 19:01:00
2:03 PM,12.2,1.4,62,30.08,3.0,West,16.1,25.3,0.00,Snow,Light Snow,280,2013-01-21 19:03:00
2:08 PM,12.2,3.2,67,30.08,1.5,WNW,19.6,26.5,0.00,Snow,Light Snow,290,2013-01-21 19:08:00
2:12 PM,12.2,5.0,73,30.09,0.8,West,21.9,27.6,0.00,Snow,Light Snow,280,2013-01-21 19:12:00
2:19 PM,12.2,1.4,62,30.09,1.8,WNW,15.0,27.6,0.00,Snow,Light Snow,290,2013-01-21 19:19:00
2:21 PM,12.2,1.4,62,30.09,3.0,West,16.1,27.6,0.00,Snow,Light Snow,280,2013-01-21 19:21:00
2:28 PM,12.2,3.2,67,30.09,1.8,WNW,19.6,31.1,0.00,Snow,Light Snow,290,2013-01-21 19:28:00
2:30 PM,12.2,3.2,67,30.09,0.8,WNW,19.6,31.1,0.00,Snow,Light Snow,290,2013-01-21 19:30:00
2:37 PM,10.4,5.0,79,30.09,0.5,West,19.6,29.9,0.00,Snow,Snow,280,2013-01-21 19:37:00
2:51 PM,10.4,5.0,79,30.09,0.2,WNW,16.1,27.6,0.00,Snow,Heavy Snow,300,2013-01-21 19:51:00
2:53 PM,10.9,5.0,77,30.13,0.2,WNW,17.3,26.5,0.00,Snow,Heavy Snow,300,2013-01-21 19:53:00
3:03 PM,10.4,3.2,73,30.10,0.8,WNW,17.3,26.5,0.00,Snow,Light Snow,290,2013-01-21 20:03:00
3:07 PM,10.4,-0.4,62,30.09,1.5,West,18.4,26.5,0.00,Snow,Light Snow,280,2013-01-21 20:07:00
3:10 PM,10.4,-0.4,62,30.10,3.0,WNW,13.8,26.5,0.00,Snow,Light Snow,290,2013-01-21 20:10:00
3:22 PM,12.2,1.4,62,30.10,2.5,WNW,17.3,26.5,0.00,Snow,Light Snow,290,2013-01-21 20:22:00
3:24 PM,12.2,-0.4,57,30.10,4.0,WNW,19.6,26.5,0.00,Snow,Light Snow,290,2013-01-21 20:24:00
3:45 PM,10.4,1.4,67,30.11,1.5,West,20.7,27.6,0.00,Snow,Light Snow,280,2013-01-21 20:45:00
3:49 PM,10.4,3.2,73,30.11,0.8,WNW,20.7,29.9,0.00,Snow,Light Snow,290,2013-01-21 20:49:00
3:53 PM,10.9,1.9,67,30.15,0.8,WNW,13.8,29.9,0.00,Snow,Light Snow,290,2013-01-21 20:53:00
3:57 PM,10.4,3.2,73,30.11,1.5,WNW,9.2,26.5,0.00,Snow,Light Snow,300,2013-01-21 20:57:00
4:05 PM,10.4,-0.4,62,30.11,3.0,WNW,15.0,24.2,0.00,Snow,Light Snow,300,2013-01-21 21:05:00
4:10 PM,10.4,1.4,67,30.11,1.5,WNW,15.0,24.2,0.00,Snow,Light Snow,290,2013-01-21 21:10:00
4:17 PM,10.4,3.2,73,30.12,1.0,WNW,10.4,23.0,0.00,Snow,Light Snow,290,2013-01-21 21:17:00
4:32 PM,10.4,3.2,73,30.12,0.5,WNW,16.1,25.3,0.00,Snow,Snow,300,2013-01-21 21:32:00
4:47 PM,10.4,1.4,67,30.12,1.0,WNW,16.1,28.8,0.00,Snow,Light Snow,300,2013-01-21 21:47:00
4:53 PM,10.0,1.9,70,30.16,0.8,WNW,18.4,28.8,0.00,Snow,Light Snow,290,2013-01-21 21:53:00
5:03 PM,10.4,1.4,67,30.12,1.5,WNW,17.3,25.3,0.00,Snow,Light Snow,290,2013-01-21 22:03:00
5:09 PM,10.4,3.2,73,30.12,0.8,WNW,16.1,27.6,0.00,Snow,Light Snow,290,2013-01-21 22:09:00
5:16 PM,10.4,3.2,73,30.13,0.5,WNW,15.0,23.0,0.00,Snow,Snow,290,2013-01-21 22:16:00
5:23 PM,10.4,3.2,73,30.13,1.0,WNW,20.7,28.8,0.00,Snow,Light Snow,290,2013-01-21 22:23:00
5:39 PM,10.4,1.4,67,30.12,2.0,WNW,15.0,25.3,0.00,Snow,Light Snow,290,2013-01-21 22:39:00
5:45 PM,10.4,1.4,67,30.13,1.0,WNW,18.4,32.2,0.00,Snow,Light Snow,300,2013-01-21 22:45:00
5:48 PM,10.4,3.2,73,30.13,0.5,West,23.0,32.2,0.00,Snow,Snow,280,2013-01-21 22:48:00
5:53 PM,10.9,3.9,73,30.17,0.5,WNW,17.3,31.1,0.00,Snow,Snow,290,2013-01-21 22:53:00
5:56 PM,10.4,3.2,73,30.13,1.0,WNW,20.7,31.1,0.00,Snow,Light Snow,290,2013-01-21 22:56:00
5:59 PM,10.4,1.4,67,30.12,2.0,WNW,15.0,26.5,0.00,Snow,Light Snow,300,2013-01-21 22:59:00
6:07 PM,10.4,1.4,67,30.13,3.0,West,18.4,26.5,0.00,Snow,Light Snow,280,2013-01-21 23:07:00
6:22 PM,10.4,3.2,73,30.13,1.8,WNW,15.0,31.1,0.00,Snow,Light Snow,290,2013-01-21 23:22:00
6:32 PM,10.4,-0.4,62,30.13,3.0,WNW,18.4,28.8,0.00,Snow,Light Snow,290,2013-01-21 23:32:00
6:39 PM,10.4,-0.4,62,30.13,9.0,WNW,13.8,27.6,0.00,,Overcast,300,2013-01-21 23:39:00
6:53 PM,10.9,-0.0,61,30.18,3.0,WNW,17.3,28.8,0.00,Snow,Light Snow,300,2013-01-21 23:53:00
7:08 PM,10.4,1.4,67,30.14,1.8,WNW,16.1,26.5,0.00,Snow,Light Snow,290,2013-01-22 00:08:00
7:18 PM,10.4,-0.4,62,30.14,3.0,WNW,17.3,26.5,0.00,Snow,Light Snow,290,2013-01-22 00:18:00
7:25 PM,10.4,-2.2,57,30.14,9.0,WNW,17.3,25.3,0.00,,Overcast,300,2013-01-22 00:25:00
7:39 PM,10.4,1.4,67,30.14,2.0,WNW,17.3,27.6,0.00,Snow,Light Snow,290,2013-01-22 00:39:00
7:43 PM,10.4,1.4,67,30.14,3.0,WNW,16.1,27.6,0.00,Snow,Light Snow,300,2013-01-22 00:43:00
7:49 PM,10.4,1.4,67,30.14,1.8,WNW,15.0,27.6,0.00,Snow,Light Snow,290,2013-01-22 00:49:00
7:53 PM,10.9,1.9,67,30.19,1.8,WNW,16.1,27.6,0.00,Snow,Light Snow,290,2013-01-22 00:53:00
8:07 PM,10.4,1.4,67,30.14,1.2,WNW,16.1,25.3,0.00,Snow,Light Snow,300,2013-01-22 01:07:00
8:10 PM,10.4,-0.4,62,30.14,2.0,WNW,15.0,25.3,0.00,Snow,Light Snow,300,2013-01-22 01:10:00
8:18 PM,10.4,1.4,67,30.15,5.0,West,12.7,24.2,0.00,Snow,Light Snow,280,2013-01-22 01:18:00
8:41 PM,10.4,1.4,67,30.15,2.0,WNW,12.7,29.9,0.00,Snow,Light Snow,290,2013-01-22 01:41:00
8:43 PM,10.4,1.4,67,30.15,3.0,NW,12.7,29.9,0.00,Snow,Light Snow,310,2013-01-22 01:43:00
8:53 PM,10.9,1.0,64,30.19,2.5,NW,17.3,32.2,0.00,Snow,Light Snow,310,2013-01-22 01:53:00
9:01 PM,10.4,-0.4,62,30.15,4.0,WNW,17.3,32.2,0.00,Snow,Light Snow,290,2013-01-22 02:01:00
9:18 PM,10.4,1.4,67,30.15,2.5,WNW,13.8,29.9,0.00,Snow,Light Snow,290,2013-01-22 02:18:00
9:39 PM,10.4,1.4,67,30.16,1.2,WNW,15.0,25.3,0.00,Snow,Light Snow,300,2013-01-22 02:39:00
9:48 PM,10.4,3.2,73,30.16,0.8,WNW,17.3,26.5,0.00,Snow,Light Snow,290,2013-01-22 02:48:00
9:53 PM,10.0,3.0,73,30.21,1.5,WNW,18.4,26.5,0.00,Snow,Light Snow,290,2013-01-22 02:53:00
10:13 PM,10.4,3.2,73,30.17,0.8,West,20.7,28.8,0.00,Snow,Light Snow,280,2013-01-22 03:13:00
10:30 PM,10.4,1.4,67,30.17,1.2,WNW,15.0,25.3,0.00,Snow,Light Snow,300,2013-01-22 03:30:00
10:33 PM,10.4,1.4,67,30.17,2.0,WNW,12.7,25.3,0.00,Snow,Light Snow,300,2013-01-22 03:33:00
10:40 PM,10.4,1.4,67,30.17,4.0,WNW,17.3,23.0,0.00,Snow,Light Snow,300,2013-01-22 03:40:00
10:49 PM,10.4,1.4,67,30.17,1.8,WNW,15.0,26.5,0.00,Snow,Light Snow,300,2013-01-22 03:49:00
10:53 PM,10.0,3.0,73,30.22,0.8,WNW,15.0,24.2,0.00,Snow,Light Snow,300,2013-01-22 03:53:00
11:06 PM,8.6,3.2,79,30.18,1.2,WNW,12.7,25.3,0.00,Snow,Light Snow,300,2013-01-22 04:06:00
11:15 PM,8.6,3.2,79,30.18,0.5,WNW,16.1,24.2,0.00,Snow,Snow,300,2013-01-22 04:15:00
11:22 PM,8.6,3.2,79,30.18,0.5,WNW,17.3,25.3,0.00,Snow,Snow,290,2013-01-22 04:22:00
11:34 PM,8.6,5.0,85,30.19,0.5,WNW,12.7,23.0,0.00,Fog-Snow,Snow,290,2013-01-22 04:34:00
11:40 PM,8.6,3.2,79,30.19,1.0,NW,11.5,24.2,0.00,Snow,Light Snow,310,2013-01-22 04:40:00
11:44 PM,8.6,1.4,73,30.19,1.5,WNW,15.0,24.2,0.00,Snow,Light Snow,290,2013-01-22 04:44:00
11:48 PM,8.6,-0.4,67,30.19,3.0,WNW,17.3,21.9,0.00,Snow,Light Snow,300,2013-01-22 04:48:00
11:53 PM,9.0,-2.0,61,30.23,7.0,WNW,11.5,21.9,0.00,,Overcast,290,2013-01-22 04:53:00